TimePDT,TemperatureF,Dew PointF,Humidity,Sea Level PressureIn,VisibilityMPH,Wind Direction,Wind SpeedMPH,Gust SpeedMPH,PrecipitationIn,Events,Conditions,WindDirDegrees,DateUTC
12:58 AM,39.7,31.3,72,30.27,10.0,SE,4.6,-,N/A,,Clear,140,2012-10-05 07:58:00
1:58 AM,39.9,32.4,74,30.27,10.0,Calm,Calm,-,N/A,,Clear,0,2012-10-05 08:58:00
2:58 AM,34.7,30.0,83,30.27,10.0,SE,3.5,-,N/A,,Clear,130,2012-10-05 09:58:00
3:58 AM,34.9,30.6,84,30.27,10.0,SE,2.3,-,N/A,,Clear,130,2012-10-05 10:58:00
4:58 AM,32.9,29.3,87,30.26,10.0,SSE,2.3,-,N/A,,Clear,150,2012-10-05 11:58:00
5:58 AM,33.3,29.1,85,30.26,10.0,East,1.2,-,N/A,,Clear,90,2012-10-05 12:58:00
6:58 AM,31.8,27.9,85,30.27,10.0,SE,4.6,-,N/A,,Clear,130,2012-10-05 13:58:00
7:58 AM,33.3,30.2,89,30.29,10.0,East,1.2,-,N/A,,Clear,100,2012-10-05 14:58:00
8:58 AM,39.7,34.5,82,30.29,10.0,SE,4.6,-,N/A,,Clear,130,2012-10-05 15:58:00
9:58 AM,49.6,38.8,66,30.29,10.0,Calm,Calm,-,N/A,,Clear,110,2012-10-05 16:58:00
10:58 AM,57.2,39.2,51,30.28,10.0,Variable,5.8,-,N/A,,Clear,0,2012-10-05 17:58:00
11:58 AM,62.2,35.4,37,30.27,10.0,NNW,5.8,-,N/A,,Clear,340,2012-10-05 18:58:00
12:58 PM,65.8,32.9,29,30.26,10.0,NNW,10.4,-,N/A,,Clear,330,2012-10-05 19:58:00
1:58 PM,68.7,31.3,25,30.22,10.0,North,10.4,-,N/A,,Clear,350,2012-10-05 20:58:00
2:58 PM,70.5,30.6,23,30.22,10.0,North,11.5,-,N/A,,Clear,350,2012-10-05 21:58:00
3:58 PM,70.3,30.6,23,30.21,10.0,NNW,11.5,-,N/A,,Clear,330,2012-10-05 22:58:00
4:58 PM,68.7,28.8,23,30.20,10.0,North,9.2,-,N/A,,Clear,350,2012-10-05 23:58:00
5:58 PM,65.5,30.2,27,30.21,10.0,NNW,12.7,-,N/A,,Clear,340,2012-10-06 00:58:00
6:58 PM,62.2,31.5,31,30.21,10.0,North,9.2,-,N/A,,Clear,350,2012-10-06 01:58:00
7:58 PM,60.1,33.3,36,30.21,10.0,North,10.4,-,N/A,,Clear,10,2012-10-06 02:58:00
8:58 PM,57.9,33.1,39,30.21,10.0,North,8.1,-,N/A,,Clear,350,2012-10-06 03:58:00
9:58 PM,52.0,32.5,48,30.22,10.0,SE,3.5,-,N/A,,Clear,140,2012-10-06 04:58:00
10:58 PM,48.7,32.9,54,30.22,10.0,SSE,2.3,-,N/A,,Clear,160,2012-10-06 05:58:00
11:58 PM,46.0,32.2,58,30.22,10.0,Calm,Calm,-,N/A,,Clear,0,2012-10-06 06:58:00